"read_dt","SO2 (ppb)","flags","PMT voltage (V)","lamp voltage (V)","lamp intensity (Hz)","internal temp (C)","react chamber temp (C)","sample flow (l/min)","pres (mmHg)","SO2 bkg (ppb)","SO2 coefficient"
2014-03-01 00:00:00,5241E-2,5C000490,-0724,1220,8418,024.1,045.2,0.122,767.0,01.15,0.508
2014-03-01 00:01:00,5336E-2,5C000490,-0724,1220,8337,024.1,045.2,0.122,766.9,01.15,0.508
2014-03-01 00:02:00,5327E-2,5C000490,-0724,1220,8373,024.1,045.2,0.122,766.9,01.15,0.508
2014-03-01 00:03:00,5220E-2,5C000490,-0724,1221,8353,024.0,045.2,0.122,766.9,01.15,0.508
2014-03-01 00:04:00,5265E-2,5C000490,-0724,1221,8225,024.0,045.2,0.122,766.9,01.15,0.508
2014-03-01 00:05:00,5259E-2,5C000490,-0724,1221,8380,024.1,045.2,0.122,766.9,01.15,0.508
2014-03-01 00:06:00,5244E-2,5C000490,-0724,1223,8254,024.1,045.2,0.122,766.9,01.15,0.508
2014-03-01 00:07:00,5249E-2,5C000490,-0724,1226,8299,024.1,045.2,0.122,766.9,01.15,0.508
2014-03-01 00:08:00,5252E-2,5C000490,-0724,1228,8307,024.1,045.2,0.122,766.9,01.15,0.508
2014-03-01 00:09:00,5245E-2,5C000490,-0724,1228,8260,024.1,045.2,0.122,766.9,01.15,0.508
2014-03-01 00:10:00,5289E-2,5C000490,-0724,1228,8287,024.1,045.2,0.122,766.9,01.15,0.508
2014-03-01 00:11:00,5269E-2,5C000490,-0724,1228,8278,024.1,045.2,0.122,766.9,01.15,0.508
2014-03-01 00:12:00,5284E-2,5C000490,-0724,1230,8295,024.1,045.2,0.122,766.8,01.15,0.508
2014-03-01 00:13:00,5322E-2,5C000490,-0724,1229,8290,024.1,045.2,0.122,766.9,01.15,0.508
2014-03-01 00:14:00,5257E-2,5C000490,-0724,1229,8321,024.1,045.2,0.122,766.9,01.15,0.508
2014-03-01 00:15:00,5311E-2,5C000490,-0724,1228,8275,024.1,045.2,0.122,766.9,01.15,0.508
2014-03-01 00:16:00,5328E-2,5C000490,-0724,1229,8272,024.1,045.2,0.122,766.8,01.15,0.508
2014-03-01 00:17:00,5355E-2,5C000490,-0724,1230,8266,024.1,045.2,0.122,766.8,01.15,0.508
2014-03-01 00:18:00,5324E-2,5C000490,-0724,1232,8185,024.1,045.2,0.122,766.8,01.15,0.508
2014-03-01 00:19:00,5390E-2,5C000490,-0724,1233,8097,024.1,045.2,0.122,766.8,01.15,0.508
2014-03-01 00:20:00,5491E-2,5C000490,-0724,1233,8216,024.1,045.2,0.122,766.9,01.15,0.508
2014-03-01 00:21:00,5467E-2,5C000490,-0724,1234,8209,024.1,045.2,0.122,766.8,01.15,0.508
2014-03-01 00:22:00,5416E-2,5C000490,-0724,1236,8194,024.1,045.2,0.122,766.8,01.15,0.508
2014-03-01 00:23:00,5446E-2,5C000490,-0724,1237,8079,024.1,045.2,0.122,766.8,01.15,0.508
2014-03-01 00:24:00,5457E-2,5C000490,-0724,1239,8121,024.1,045.2,0.122,766.9,01.15,0.508
2014-03-01 00:25:00,5433E-2,5C000490,-0724,1240,8053,024.1,045.2,0.122,766.8,01.15,0.508
2014-03-01 00:26:00,5499E-2,5C000490,-0724,1241,8143,024.1,045.2,0.122,766.8,01.15,0.508
2014-03-01 00:27:00,5474E-2,5C000490,-0724,1241,8180,024.1,045.2,0.122,766.8,01.15,0.508
2014-03-01 00:28:00,5471E-2,5C000490,-0724,1242,8029,024.1,045.2,0.122,766.8,01.15,0.508
2014-03-01 00:29:00,5487E-2,5C000490,-0724,1243,8063,024.1,045.2,0.122,766.8,01.15,0.508
2014-03-01 00:30:00,5436E-2,5C000490,-0724,1245,8089,024.1,045.2,0.122,766.8,01.15,0.508
2014-03-01 00:31:00,5464E-2,5C000490,-0724,1246,8034,024.1,045.2,0.122,766.8,01.15,0.508
2014-03-01 00:32:00,5493E-2,5C000490,-0724,1247,8068,024.1,045.2,0.122,766.8,01.15,0.508
2014-03-01 00:33:00,5520E-2,5C000490,-0724,1247,8087,024.1,045.2,0.122,766.8,01.15,0.508
2014-03-01 00:34:00,5463E-2,5C000490,-0724,1248,8070,024.1,045.2,0.122,766.8,01.15,0.508
2014-03-01 00:35:00,5517E-2,5C000490,-0724,1248,7945,024.1,045.2,0.122,766.8,01.15,0.508
2014-03-01 00:36:00,5498E-2,5C000490,-0724,1251,7930,024.1,045.2,0.122,766.8,01.15,0.508
2014-03-01 00:37:00,5507E-2,5C000490,-0724,1252,8002,024.1,045.2,0.122,766.8,01.15,0.508
2014-03-01 00:38:00,5502E-2,5C000490,-0724,1253,8064,024.1,045.2,0.122,766.9,01.15,0.508
2014-03-01 00:39:00,5472E-2,5C000490,-0724,1254,7995,024.1,045.2,0.122,766.8,01.15,0.508
2014-03-01 00:40:00,5516E-2,5C000490,-0724,1254,8059,024.1,045.2,0.121,766.8,01.15,0.508
2014-03-01 00:41:00,5543E-2,5C000490,-0724,1255,7881,024.1,045.2,0.122,766.8,01.15,0.508
2014-03-01 00:42:00,5478E-2,5C000490,-0724,1255,8011,024.1,045.2,0.121,766.8,01.15,0.508
2014-03-01 00:43:00,5573E-2,5C000490,-0724,1255,7919,024.2,045.2,0.122,766.9,01.15,0.508
2014-03-01 00:44:00,5518E-2,5C000490,-0724,1258,7963,024.1,045.2,0.121,766.8,01.15,0.508
2014-03-01 00:45:00,5562E-2,5C000490,-0724,1259,7956,024.1,045.2,0.121,766.8,01.15,0.508
2014-03-01 00:46:00,5537E-2,5C000490,-0724,1258,7938,024.1,045.2,0.122,766.8,01.15,0.508
2014-03-01 00:47:00,5557E-2,5C000490,-0724,1259,7961,024.1,045.2,0.121,766.8,01.15,0.508
2014-03-01 00:48:00,5444E-2,5C000490,-0724,1258,7906,024.1,045.2,0.121,766.8,01.15,0.508
2014-03-01 00:49:00,5544E-2,5C000490,-0724,1259,7913,024.1,045.2,0.122,766.8,01.15,0.508
2014-03-01 00:50:00,5477E-2,5C000490,-0724,1261,7979,024.1,045.2,0.121,766.8,01.15,0.508
2014-03-01 00:51:00,5504E-2,5C000490,-0724,1263,7919,024.1,045.2,0.122,766.8,01.15,0.508
2014-03-01 00:52:00,5517E-2,5C000490,-0724,1265,7946,024.2,045.2,0.122,766.8,01.15,0.508
2014-03-01 00:53:00,5597E-2,5C000490,-0724,1267,7888,024.2,045.2,0.122,766.8,01.15,0.508
2014-03-01 00:54:00,5536E-2,5C000490,-0724,1269,7754,024.2,045.2,0.121,766.8,01.15,0.508
2014-03-01 00:55:00,5512E-2,5C000490,-0724,1271,7905,024.2,045.2,0.121,766.8,01.15,0.508
2014-03-01 00:56:00,5521E-2,5C000490,-0724,1271,7780,024.2,045.2,0.121,766.8,01.15,0.508
2014-03-01 00:57:00,5563E-2,5C000490,-0724,1273,7826,024.2,045.2,0.121,766.8,01.15,0.508
2014-03-01 00:58:00,5572E-2,5C000490,-0724,1272,7875,024.2,045.2,0.121,766.8,01.15,0.508
2014-03-01 00:59:00,5574E-2,5C000490,-0724,1272,7843,024.2,045.2,0.121,766.8,01.15,0.508
2014-03-01 01:00:00,5540E-2,5C000490,-0724,1269,7877,024.2,045.2,0.122,766.8,01.15,0.508
2014-03-01 01:01:00,5510E-2,5C000490,-0724,1267,7856,024.2,045.2,0.121,766.9,01.15,0.508
2014-03-01 01:02:00,5488E-2,5C000490,-0724,1268,7813,024.2,045.2,0.121,766.8,01.15,0.508
2014-03-01 01:03:00,5523E-2,5C000490,-0724,1269,7796,024.2,045.2,0.121,766.8,01.15,0.508
2014-03-01 01:04:00,5605E-2,5C000490,-0724,1270,7892,024.2,045.2,0.121,766.8,01.15,0.508
2014-03-01 01:05:00,5546E-2,5C000490,-0724,1271,7767,024.2,045.2,0.121,766.8,01.15,0.508
2014-03-01 01:06:00,5519E-2,5C000490,-0724,1273,7825,024.2,045.2,0.121,766.8,01.15,0.508
2014-03-01 01:07:00,5566E-2,5C000490,-0724,1275,7850,024.2,045.2,0.121,766.9,01.15,0.508
2014-03-01 01:08:00,5511E-2,5C000490,-0724,1277,7743,024.2,045.2,0.121,766.8,01.15,0.508
2014-03-01 01:09:00,5486E-2,5C000490,-0724,1278,7685,024.2,045.2,0.121,766.8,01.15,0.508
2014-03-01 01:10:00,5535E-2,5C000490,-0724,1278,7753,024.2,045.2,0.121,766.8,01.15,0.508
2014-03-01 01:11:00,5492E-2,5C000490,-0724,1278,7883,024.2,045.2,0.121,766.8,01.15,0.508
2014-03-01 01:12:00,5577E-2,5C000490,-0724,1275,7820,024.2,045.2,0.121,766.8,01.15,0.508
2014-03-01 01:13:00,5485E-2,5C000490,-0724,1278,7704,024.2,045.2,0.121,766.8,01.15,0.508
2014-03-01 01:14:00,5490E-2,5C000490,-0724,1280,7636,024.2,045.2,0.121,766.8,01.15,0.508
2014-03-01 01:15:00,5521E-2,5C000490,-0724,1282,7788,024.2,045.2,0.121,766.8,01.15,0.508
2014-03-01 01:16:00,5535E-2,5C000490,-0724,1282,7821,024.2,045.2,0.121,766.8,01.15,0.508
2014-03-01 01:17:00,5520E-2,5C000490,-0724,1282,7775,024.2,045.2,0.121,766.8,01.15,0.508
2014-03-01 01:18:00,5503E-2,5C000490,-0724,1284,7771,024.3,045.2,0.121,766.8,01.15,0.508
2014-03-01 01:19:00,5490E-2,5C000490,-0724,1284,7774,024.2,045.2,0.121,766.8,01.15,0.508
2014-03-01 01:20:00,5580E-2,5C000490,-0724,1286,7672,024.2,045.2,0.121,766.8,01.15,0.508
2014-03-01 01:21:00,5554E-2,5C000490,-0724,1285,7718,024.3,045.2,0.121,766.8,01.15,0.508
2014-03-01 01:22:00,5568E-2,5C000490,-0724,1286,7705,024.3,045.2,0.121,766.8,01.15,0.508
2014-03-01 01:23:00,5542E-2,5C000490,-0724,1286,7662,024.3,045.2,0.121,766.8,01.15,0.508
2014-03-01 01:24:00,5519E-2,5C000490,-0724,1287,7661,024.2,045.2,0.121,766.8,01.15,0.508
2014-03-01 01:25:00,5577E-2,5C000490,-0724,1287,7735,024.2,045.2,0.121,766.8,01.15,0.508
2014-03-01 01:26:00,5466E-2,5C000490,-0724,1289,7632,024.3,045.2,0.121,766.8,01.15,0.508
2014-03-01 01:27:00,5551E-2,5C000490,-0724,1290,7601,024.3,045.2,0.121,766.8,01.15,0.508
2014-03-01 01:28:00,5563E-2,5C000490,-0724,1293,7689,024.3,045.2,0.121,766.8,01.15,0.508
2014-03-01 01:29:00,5561E-2,5C000490,-0724,1295,7614,024.3,045.2,0.121,766.8,01.15,0.508
2014-03-01 01:30:00,5527E-2,5C000490,-0724,1296,7585,024.3,045.2,0.121,766.8,01.15,0.508
2014-03-01 01:31:00,5471E-2,5C000490,-0724,1295,7685,024.3,045.2,0.121,766.8,01.15,0.508
2014-03-01 01:32:00,5486E-2,5C000490,-0724,1295,7620,024.3,045.2,0.121,766.8,01.15,0.508
2014-03-01 01:33:00,5475E-2,5C000490,-0724,1297,7490,024.3,045.2,0.121,766.7,01.15,0.508
2014-03-01 01:34:00,5449E-2,5C000490,-0724,1299,7630,024.3,045.2,0.121,766.8,01.15,0.508
2014-03-01 01:35:00,5486E-2,5C000490,-0724,1301,7536,024.3,045.2,0.121,766.8,01.15,0.508
2014-03-01 01:36:00,5474E-2,5C000490,-0724,1302,7525,024.3,045.2,0.121,766.7,01.15,0.508
2014-03-01 01:37:00,5430E-2,5C000490,-0724,1303,7524,024.3,045.2,0.121,766.7,01.15,0.508
2014-03-01 01:38:00,5474E-2,5C000490,-0724,1303,7489,024.3,045.2,0.121,766.8,01.15,0.508
2014-03-01 01:39:00,5461E-2,5C000490,-0724,1302,7492,024.3,045.2,0.121,766.8,01.15,0.508
2014-03-01 01:40:00,5489E-2,5C000490,-0724,1303,7567,024.3,045.2,0.121,766.7,01.15,0.508
2014-03-01 01:41:00,5537E-2,5C000490,-0724,1304,7462,024.3,045.2,0.121,766.7,01.15,0.508
2014-03-01 01:42:00,5451E-2,5C000490,-0724,1306,7368,024.3,045.2,0.121,766.8,01.15,0.508
2014-03-01 01:43:00,5495E-2,5C000490,-0724,1306,7521,024.3,045.2,0.121,766.8,01.15,0.508
2014-03-01 01:44:00,5532E-2,5C000490,-0724,1305,7478,024.3,045.2,0.121,766.7,01.15,0.508
2014-03-01 01:45:00,5511E-2,5C000490,-0724,1305,7484,024.3,045.2,0.121,766.7,01.15,0.508
2014-03-01 01:46:00,5540E-2,5C000490,-0724,1305,7480,024.3,045.2,0.121,766.7,01.15,0.508
2014-03-01 01:47:00,5541E-2,5C000490,-0724,1306,7561,024.3,045.2,0.121,766.7,01.15,0.508
2014-03-01 01:48:00,5542E-2,5C000490,-0724,1307,7568,024.3,045.2,0.121,766.8,01.15,0.508
2014-03-01 01:49:00,5536E-2,5C000490,-0724,1307,7534,024.3,045.2,0.121,766.7,01.15,0.508
2014-03-01 01:50:00,5549E-2,5C000490,-0724,1308,7409,024.3,045.2,0.121,766.7,01.15,0.508
2014-03-01 01:51:00,5600E-2,5C000490,-0724,1310,7466,024.3,045.2,0.121,766.7,01.15,0.508
2014-03-01 01:52:00,5526E-2,5C000490,-0724,1310,7434,024.3,045.2,0.121,766.7,01.15,0.508
2014-03-01 01:53:00,5558E-2,5C000490,-0724,1311,7399,024.3,045.2,0.121,766.7,01.15,0.508
2014-03-01 01:54:00,5616E-2,5C000490,-0724,1311,7417,024.3,045.2,0.121,766.7,01.15,0.508
2014-03-01 01:55:00,5640E-2,5C000490,-0724,1314,7488,024.4,045.2,0.121,766.8,01.15,0.508
2014-03-01 01:56:00,5627E-2,5C000490,-0724,1315,7421,024.4,045.2,0.121,766.6,01.15,0.508
2014-03-01 01:57:00,5565E-2,5C000490,-0724,1315,7350,024.4,045.1,0.121,766.7,01.15,0.508
2014-03-01 01:58:00,5548E-2,5C000490,-0724,1314,7364,024.4,045.2,0.121,766.8,01.15,0.508
2014-03-01 01:59:00,5584E-2,5C000490,-0724,1316,7417,024.4,045.2,0.121,766.7,01.15,0.508
2014-03-01 02:00:00,5602E-2,5C000490,-0724,1316,7438,024.4,045.2,0.121,766.7,01.15,0.508
2014-03-01 02:01:00,5604E-2,5C000490,-0724,1318,7409,024.4,045.2,0.121,766.7,01.15,0.508
2014-03-01 02:02:00,5582E-2,5C000490,-0724,1319,7401,024.4,045.2,0.121,766.7,01.15,0.508
2014-03-01 02:03:00,5616E-2,5C000490,-0724,1319,7416,024.4,045.2,0.121,766.7,01.15,0.508
2014-03-01 02:04:00,5561E-2,5C000490,-0724,1320,7233,024.4,045.2,0.121,766.7,01.15,0.508
2014-03-01 02:05:00,5640E-2,5C000490,-0724,1321,7400,024.4,045.2,0.121,766.7,01.15,0.508
2014-03-01 02:06:00,5609E-2,5C000490,-0724,1323,7329,024.4,045.2,0.121,766.8,01.15,0.508
2014-03-01 02:07:00,5643E-2,5C000490,-0724,1324,7211,024.4,045.2,0.121,766.8,01.15,0.508
2014-03-01 02:08:00,5623E-2,5C000490,-0724,1325,7360,024.4,045.2,0.121,766.7,01.15,0.508
2014-03-01 02:09:00,5565E-2,5C000490,-0724,1327,7261,024.4,045.2,0.121,766.7,01.15,0.508
2014-03-01 02:10:00,5662E-2,5C000490,-0724,1327,7282,024.4,045.2,0.120,766.7,01.15,0.508
2014-03-01 02:11:00,5646E-2,5C000490,-0724,1328,7314,024.4,045.2,0.120,766.6,01.15,0.508
2014-03-01 02:12:00,5626E-2,5C000490,-0724,1330,7277,024.4,045.2,0.120,766.7,01.15,0.508
2014-03-01 02:13:00,5625E-2,5C000490,-0724,1330,7339,024.4,045.2,0.120,766.7,01.15,0.508
2014-03-01 02:14:00,5639E-2,5C000490,-0724,1330,7268,024.4,045.2,0.120,766.7,01.15,0.508
2014-03-01 02:15:00,5657E-2,5C000490,-0724,1331,7302,024.4,045.2,0.120,766.7,01.15,0.508
2014-03-01 02:16:00,5630E-2,5C000490,-0724,1333,7253,024.4,045.2,0.120,766.7,01.15,0.508
2014-03-01 02:17:00,5703E-2,5C000490,-0724,1336,7158,024.5,045.2,0.120,766.7,01.15,0.508
2014-03-01 02:18:00,5736E-2,5C000490,-0724,1337,7283,024.5,045.2,0.120,766.8,01.15,0.508
2014-03-01 02:19:00,5696E-2,5C000490,-0724,1338,7129,024.5,045.2,0.120,766.8,01.15,0.508
2014-03-01 02:20:00,5775E-2,5C000490,-0724,1339,7172,024.5,045.2,0.120,766.7,01.15,0.508
2014-03-01 02:21:00,5698E-2,5C000490,-0724,1340,7092,024.5,045.2,0.120,766.7,01.15,0.508
2014-03-01 02:22:00,5633E-2,5C000490,-0724,1342,7030,024.5,045.2,0.120,766.8,01.15,0.508
2014-03-01 02:23:00,5644E-2,5C000490,-0724,1345,7080,024.5,045.2,0.120,766.8,01.15,0.508
2014-03-01 02:24:00,5588E-2,5C000490,-0724,1344,7176,024.5,045.2,0.120,766.7,01.15,0.508
2014-03-01 02:25:00,5611E-2,5C000490,-0724,1343,7151,024.5,045.2,0.120,766.7,01.15,0.508
2014-03-01 02:26:00,5617E-2,5C000490,-0724,1344,7176,024.5,045.2,0.120,766.7,01.15,0.508
2014-03-01 02:27:00,5638E-2,5C000490,-0724,1344,7137,024.5,045.2,0.120,766.7,01.15,0.508
2014-03-01 02:28:00,5558E-2,5C000490,-0724,1342,7210,024.5,045.2,0.120,766.8,01.15,0.508
2014-03-01 02:29:00,5666E-2,5C000490,-0724,1337,7207,024.6,045.2,0.120,766.8,01.15,0.508
2014-03-01 02:30:00,5705E-2,5C000490,-0724,1335,7160,024.5,045.2,0.120,766.8,01.15,0.508
2014-03-01 02:31:00,5699E-2,5C000490,-0724,1335,7216,024.6,045.2,0.120,766.7,01.15,0.508
2014-03-01 02:32:00,5729E-2,5C000490,-0724,1335,7172,024.6,045.2,0.120,766.7,01.15,0.508
2014-03-01 02:33:00,5710E-2,5C000490,-0724,1334,7129,024.6,045.2,0.120,766.8,01.15,0.508
2014-03-01 02:34:00,5700E-2,5C000490,-0724,1332,7196,024.6,045.2,0.120,766.8,01.15,0.508
2014-03-01 02:35:00,5688E-2,5C000490,-0724,1330,7273,024.6,045.2,0.120,766.7,01.15,0.508
2014-03-01 02:36:00,5702E-2,5C000490,-0724,1328,7226,024.6,045.2,0.120,766.8,01.15,0.508
2014-03-01 02:37:00,5698E-2,5C000490,-0724,1329,7190,024.6,045.2,0.120,766.8,01.15,0.508
2014-03-01 02:38:00,5689E-2,5C000490,-0724,1329,7271,024.6,045.2,0.120,766.7,01.15,0.508
2014-03-01 02:39:00,5737E-2,5C000490,-0724,1327,7241,024.6,045.2,0.120,766.8,01.15,0.508
2014-03-01 02:40:00,5711E-2,5C000490,-0724,1327,7301,024.6,045.2,0.120,766.8,01.15,0.508
2014-03-01 02:41:00,5674E-2,5C000490,-0724,1328,7274,024.6,045.2,0.120,766.8,01.15,0.508
2014-03-01 02:42:00,5670E-2,5C000490,-0724,1330,7223,024.7,045.2,0.120,766.8,01.15,0.508
2014-03-01 02:43:00,5725E-2,5C000490,-0724,1332,7231,024.7,045.2,0.120,766.8,01.15,0.508
2014-03-01 02:44:00,5711E-2,5C000490,-0724,1333,7245,024.7,045.2,0.120,766.8,01.15,0.508
2014-03-01 02:45:00,5748E-2,5C000490,-0724,1334,7213,024.7,045.2,0.120,766.8,01.15,0.508
2014-03-01 02:46:00,5677E-2,5C000490,-0724,1338,7189,024.7,045.2,0.120,766.8,01.15,0.508
2014-03-01 02:47:00,5774E-2,5C000490,-0724,1339,7225,024.7,045.2,0.120,766.8,01.15,0.508
2014-03-01 02:48:00,5703E-2,5C000490,-0724,1341,7138,024.7,045.2,0.119,766.8,01.15,0.508
2014-03-01 02:49:00,5745E-2,5C000490,-0724,1341,7142,024.7,045.2,0.119,766.8,01.15,0.508
2014-03-01 02:50:00,5702E-2,5C000490,-0724,1343,7146,024.7,045.2,0.120,766.8,01.15,0.508
2014-03-01 02:51:00,5667E-2,5C000490,-0724,1342,7056,024.7,045.2,0.119,766.8,01.15,0.508
2014-03-01 02:52:00,5697E-2,5C000490,-0724,1342,7087,024.7,045.2,0.119,766.9,01.15,0.508
2014-03-01 02:53:00,5716E-2,5C000490,-0724,1344,7186,024.7,045.2,0.119,766.9,01.15,0.508
2014-03-01 02:54:00,5661E-2,5C000490,-0724,1345,7106,024.7,045.2,0.119,766.9,01.15,0.508
2014-03-01 02:55:00,5644E-2,5C000490,-0724,1346,7149,024.7,045.2,0.119,766.9,01.15,0.508
2014-03-01 02:56:00,5630E-2,5C000490,-0724,1346,7127,024.8,045.2,0.119,766.8,01.15,0.508
2014-03-01 02:57:00,5615E-2,5C000490,-0724,1348,7145,024.8,045.2,0.119,766.8,01.15,0.508
2014-03-01 02:58:00,5636E-2,5C000490,-0724,1349,7128,024.8,045.2,0.119,766.9,01.15,0.508
2014-03-01 02:59:00,5633E-2,5C000490,-0724,1350,7039,024.8,045.2,0.119,766.9,01.15,0.508
2014-03-01 03:00:00,5669E-2,5C000490,-0724,1353,7079,024.8,045.2,0.119,766.9,01.15,0.508
2014-03-01 03:01:00,5662E-2,5C000490,-0724,1354,6939,024.8,045.2,0.119,766.9,01.15,0.508
2014-03-01 03:02:00,5644E-2,5C000490,-0724,1353,6980,024.8,045.2,0.119,766.8,01.15,0.508
2014-03-01 03:03:00,5644E-2,5C000490,-0724,1353,6928,024.8,045.2,0.119,766.9,01.15,0.508
2014-03-01 03:04:00,5602E-2,5C000490,-0724,1354,7040,024.8,045.2,0.119,767.0,01.15,0.508
2014-03-01 03:05:00,5642E-2,5C000490,-0724,1354,6895,024.8,045.2,0.119,766.9,01.15,0.508
2014-03-01 03:06:00,5598E-2,5C000490,-0724,1356,6999,024.9,045.2,0.119,766.9,01.15,0.508
2014-03-01 03:07:00,5641E-2,5C000490,-0724,1357,6942,024.9,045.2,0.119,767.0,01.15,0.508
2014-03-01 03:08:00,5602E-2,5C000490,-0724,1358,6898,024.9,045.2,0.119,766.9,01.15,0.508
2014-03-01 03:09:00,5573E-2,5C000490,-0724,1360,6895,024.9,045.2,0.119,766.9,01.15,0.508
2014-03-01 03:10:00,5649E-2,5C000490,-0724,1361,6904,024.9,045.2,0.119,766.9,01.15,0.508
2014-03-01 03:11:00,5651E-2,5C000490,-0724,1362,6872,024.9,045.2,0.119,766.9,01.15,0.508
2014-03-01 03:12:00,5649E-2,5C000490,-0724,1364,6861,024.9,045.2,0.119,766.9,01.15,0.508
2014-03-01 03:13:00,5637E-2,5C000490,-0724,1364,6928,024.9,045.2,0.119,766.9,01.15,0.508
2014-03-01 03:14:00,5629E-2,5C000490,-0724,1364,6790,024.9,045.2,0.119,766.9,01.15,0.508
2014-03-01 03:15:00,5591E-2,5C000490,-0724,1365,7016,024.9,045.2,0.119,766.9,01.15,0.508
2014-03-01 03:16:00,5603E-2,5C000490,-0724,1361,6966,024.9,045.2,0.119,766.9,01.15,0.508
2014-03-01 03:17:00,5620E-2,5C000490,-0724,1360,7012,025.0,045.2,0.119,766.9,01.15,0.508
2014-03-01 03:18:00,5659E-2,5C000490,-0724,1358,6926,025.0,045.2,0.118,767.0,01.15,0.508
2014-03-01 03:19:00,5594E-2,5C000490,-0724,1358,7020,025.0,045.2,0.118,767.0,01.15,0.508
2014-03-01 03:20:00,5648E-2,5C000490,-0724,1357,6993,025.0,045.2,0.119,766.9,01.15,0.508
2014-03-01 03:21:00,5667E-2,5C000490,-0724,1356,6948,025.0,045.2,0.118,767.0,01.15,0.508
2014-03-01 03:22:00,5575E-2,5C000490,-0724,1355,7059,025.0,045.2,0.118,767.0,01.15,0.508
2014-03-01 03:23:00,5630E-2,5C000490,-0724,1355,7035,025.0,045.2,0.118,767.0,01.15,0.508
2014-03-01 03:24:00,5645E-2,5C000490,-0724,1354,7026,025.0,045.2,0.118,766.9,01.15,0.508
2014-03-01 03:25:00,5636E-2,5C000490,-0724,1346,7222,025.0,045.2,0.118,766.9,01.15,0.508
2014-03-01 03:26:00,5599E-2,5C000490,-0724,1343,7126,025.0,045.2,0.118,767.0,01.15,0.508
2014-03-01 03:27:00,5616E-2,5C000490,-0724,1342,7159,025.0,045.2,0.118,766.9,01.15,0.508
2014-03-01 03:28:00,5706E-2,5C000490,-0724,1343,7048,025.1,045.2,0.118,767.0,01.15,0.508
2014-03-01 03:29:00,5626E-2,5C000490,-0724,1345,7119,025.0,045.2,0.118,767.0,01.15,0.508
2014-03-01 03:30:00,5617E-2,5C000490,-0724,1345,7094,025.1,045.2,0.118,767.0,01.15,0.508
2014-03-01 03:31:00,5567E-2,5C000490,-0724,1346,7037,025.1,045.2,0.118,767.0,01.15,0.508
2014-03-01 03:32:00,5624E-2,5C000490,-0724,1348,7071,025.1,045.2,0.118,767.0,01.15,0.508
2014-03-01 03:33:00,5563E-2,5C000490,-0724,1349,7012,025.1,045.2,0.118,766.9,01.15,0.508
2014-03-01 03:34:00,5573E-2,5C000490,-0724,1350,7046,025.1,045.2,0.118,767.0,01.15,0.508
2014-03-01 03:35:00,5572E-2,5C000490,-0724,1351,7028,025.1,045.2,0.118,767.0,01.15,0.508
2014-03-01 03:36:00,5587E-2,5C000490,-0724,1352,7041,025.1,045.2,0.118,767.0,01.15,0.508
2014-03-01 03:37:00,5579E-2,5C000490,-0724,1351,7089,025.1,045.2,0.118,767.0,01.15,0.508
2014-03-01 03:38:00,5596E-2,5C000490,-0724,1351,7024,025.1,045.2,0.118,767.0,01.15,0.508
2014-03-01 03:39:00,5562E-2,5C000490,-0724,1352,7052,025.1,045.2,0.118,767.0,01.15,0.508
2014-03-01 03:40:00,5582E-2,5C000490,-0724,1354,7020,025.1,045.2,0.118,767.0,01.15,0.508
2014-03-01 03:41:00,5594E-2,5C000490,-0724,1355,7059,025.1,045.2,0.118,767.0,01.15,0.508
2014-03-01 03:42:00,5594E-2,5C000490,-0724,1355,6999,025.1,045.2,0.118,767.0,01.15,0.508
2014-03-01 03:43:00,5603E-2,5C000490,-0724,1357,7033,025.2,045.2,0.118,766.9,01.15,0.508
2014-03-01 03:44:00,5578E-2,5C000490,-0724,1358,6990,025.2,045.2,0.118,766.9,01.15,0.508
2014-03-01 03:45:00,5575E-2,5C000490,-0724,1359,6922,025.2,045.2,0.118,766.9,01.15,0.508
2014-03-01 03:46:00,5554E-2,5C000490,-0724,1360,6919,025.2,045.2,0.118,767.0,01.15,0.508
2014-03-01 03:47:00,5633E-2,5C000490,-0724,1360,6938,025.2,045.2,0.118,767.0,01.15,0.508
2014-03-01 03:48:00,5607E-2,5C000490,-0724,1362,6934,025.2,045.2,0.118,767.0,01.15,0.508
2014-03-01 03:49:00,5667E-2,5C000490,-0724,1363,6904,025.2,045.2,0.118,766.9,01.15,0.508
2014-03-01 03:50:00,5619E-2,5C000490,-0724,1364,6914,025.2,045.2,0.118,766.9,01.15,0.508
2014-03-01 03:51:00,5621E-2,5C000490,-0724,1364,6879,025.2,045.2,0.117,766.9,01.15,0.508
2014-03-01 03:52:00,5663E-2,5C000490,-0724,1364,6895,025.2,045.2,0.118,767.0,01.15,0.508
2014-03-01 03:53:00,5613E-2,5C000490,-0724,1364,6928,025.2,045.2,0.118,767.0,01.15,0.508
2014-03-01 03:54:00,5652E-2,5C000490,-0724,1363,6902,025.2,045.2,0.117,766.9,01.15,0.508
2014-03-01 03:55:00,5643E-2,5C000490,-0724,1363,6915,025.2,045.2,0.117,767.0,01.15,0.508
2014-03-01 03:56:00,5673E-2,5C000490,-0724,1364,6851,025.2,045.2,0.118,767.0,01.15,0.508
2014-03-01 03:57:00,5618E-2,5C000490,-0724,1365,6895,025.2,045.2,0.117,766.9,01.15,0.508
2014-03-01 03:58:00,5604E-2,5C000490,-0724,1366,6918,025.3,045.2,0.118,766.9,01.15,0.508
2014-03-01 03:59:00,5521E-2,5C000490,-0724,1366,6959,025.2,045.2,0.117,766.9,01.15,0.508
2014-03-01 04:00:00,5468E-2,5C000490,-0724,1365,6888,025.3,045.2,0.117,767.0,01.15,0.508
2014-03-01 04:01:00,5445E-2,5C000490,-0724,1366,6882,025.3,045.2,0.117,766.9,01.15,0.508
2014-03-01 04:02:00,5424E-2,5C000490,-0724,1367,6825,025.3,045.2,0.117,766.9,01.15,0.508
2014-03-01 04:03:00,5438E-2,5C000490,-0724,1367,6806,025.3,045.2,0.117,766.9,01.15,0.508
2014-03-01 04:04:00,5402E-2,5C000490,-0724,1368,6827,025.3,045.2,0.117,766.9,01.15,0.508
2014-03-01 04:05:00,5401E-2,5C000490,-0724,1368,6833,025.3,045.2,0.117,767.0,01.15,0.508
2014-03-01 04:06:00,5452E-2,5C000490,-0724,1369,6874,025.3,045.2,0.117,766.9,01.15,0.508
2014-03-01 04:07:00,5392E-2,5C000490,-0724,1369,6831,025.3,045.2,0.117,766.9,01.15,0.508
2014-03-01 04:08:00,5386E-2,5C000490,-0724,1370,6653,025.3,045.2,0.117,766.9,01.15,0.508
2014-03-01 04:09:00,5464E-2,5C000490,-0724,1370,6748,025.3,045.2,0.117,766.9,01.15,0.508
2014-03-01 04:10:00,5401E-2,5C000490,-0724,1370,6648,025.3,045.2,0.117,766.9,01.15,0.508
2014-03-01 04:11:00,5396E-2,5C000490,-0724,1371,6763,025.3,045.2,0.117,766.9,01.15,0.508
2014-03-01 04:12:00,5395E-2,5C000490,-0724,1371,6773,025.3,045.2,0.117,767.0,01.15,0.508
2014-03-01 04:13:00,5444E-2,5C000490,-0724,1372,6784,025.4,045.2,0.117,766.9,01.15,0.508
2014-03-01 04:14:00,5401E-2,5C000490,-0724,1372,6745,025.4,045.2,0.117,766.9,01.15,0.508
2014-03-01 04:15:00,5425E-2,5C000490,-0724,1372,6686,025.4,045.2,0.117,767.0,01.15,0.508
2014-03-01 04:16:00,5380E-2,5C000490,-0724,1372,6712,025.4,045.2,0.117,767.0,01.15,0.508
2014-03-01 04:17:00,5422E-2,5C000490,-0724,1372,6765,025.4,045.2,0.117,766.8,01.15,0.508
2014-03-01 04:18:00,5358E-2,5C000490,-0724,1372,6726,025.4,045.2,0.117,766.8,01.15,0.508
2014-03-01 04:19:00,5444E-2,5C000490,-0724,1371,6773,025.4,045.2,0.117,766.9,01.15,0.508
2014-03-01 04:20:00,5377E-2,5C000490,-0724,1371,6731,025.4,045.2,0.117,766.9,01.15,0.508
2014-03-01 04:21:00,5352E-2,5C000490,-0724,1371,6794,025.4,045.2,0.117,766.8,01.15,0.508
2014-03-01 04:22:00,5366E-2,5C000490,-0724,1371,6744,025.4,045.2,0.117,766.9,01.15,0.508
2014-03-01 04:23:00,5375E-2,5C000490,-0724,1372,6669,025.4,045.2,0.117,766.9,01.15,0.508